Location: Ostrava
(49.8330°N, 18.2830°E)
Time: 02:17:38
(UTC+01:00)

Iridium 39 - Visible Passes

Search period start: 09 February 2016 00:00
Search period end: 19 February 2016 00:00
Orbit: 776 x 779 km, 86.4° (Epoch: 08 February)

Date Brightness Start Highest point End Pass type
(mag) Time Alt. Az. Time Alt. Az. Time Alt. Az.
09 Feb 6.9 05:29:19 10° SSE 05:34:21 52° E 05:39:26 10° NNE visible
09 Feb 6.4 17:34:49 10° N 17:40:02 71° W 17:45:13 10° S visible
09 Feb 9.3 19:18:26 10° NW 19:19:45 11° WNW 19:21:04 10° W visible
10 Feb 7.9 04:56:29 10° SE 05:01:00 31° E 05:05:33 10° NNE visible
10 Feb 8.9 18:43:06 10° NNW 18:46:39 19° WNW 18:50:11 10° WSW visible
11 Feb 8.7 04:24:13 10° ESE 04:27:47 19° ENE 04:31:21 10° NNE visible
11 Feb 6.0 06:02:45 10° SSW 06:07:56 68° W 06:13:10 10° N visible
11 Feb 8.1 18:08:54 10° NNW 18:13:25 31° W 18:17:56 10° SW visible
12 Feb 9.3 03:53:14 10° E 03:54:40 11° ENE 03:56:07 10° NE visible
12 Feb 6.3 05:29:14 10° S 05:34:24 72° E 05:39:38 10° N visible
12 Feb 7.1 17:35:01 10° NNW 17:40:05 51° W 17:45:07 10° SSW visible
13 Feb 7.3 04:56:07 10° SSE 05:00:59 42° E 05:05:54 10° NNE visible
13 Feb 9.1 18:44:00 10° NW 18:46:31 14° WNW 18:49:01 10° WSW visible
14 Feb 8.2 04:23:28 10° SE 04:27:42 26° E 04:31:55 10° NNE visible
14 Feb 6.2 06:03:04 10° SSW 06:08:07 49° W 06:13:12 10° N visible
14 Feb 8.7 18:09:21 10° NNW 18:13:22 23° WNW 18:17:21 10° SW visible
15 Feb 8.9 03:51:32 10° ESE 03:54:30 16° ENE 03:57:29 10° NE visible
15 Feb 6.0 05:29:17 10° S 05:34:30 83° W 05:39:46 10° N visible
15 Feb 7.8 17:35:18 10° NNW 17:40:06 37° W 17:44:51 10° SSW visible
16 Feb 6.6 04:55:55 10° SSE 05:01:00 58° E 05:06:09 10° N visible
17 Feb 7.7 04:22:58 10° SSE 04:27:38 34° E 04:32:20 10° NNE visible
17 Feb 6.6 06:03:33 10° SW 06:08:20 36° WNW 06:13:10 10° N visible
17 Feb 8.9 18:10:02 10° NW 18:13:15 17° WNW 18:16:29 10° WSW visible
18 Feb 8.5 03:50:34 10° SE 03:54:23 21° ENE 03:58:13 10° NNE visible
18 Feb 6.0 05:29:30 10° SSW 05:34:39 61° W 05:39:50 10° N visible
18 Feb 8.4 17:35:41 10° NNW 17:40:03 28° W 17:44:25 10° SW visible
